Other Surface Observations
Issued by NWS

Home | Current Version | Previous Version | Text Only | Print | Product List | Glossary On
Versions: 1 2 3 4 5 6 7 8 9 10 11 12 13 14 15 16 17 18 19 20 21 22 23 24 25 26 27 28 29 30 31 32 33 34 35 36 37 38 39 40 41 42 43 44 45 46 47 48 49 50
000
SXUS52 KTAE 020218
OSOTAE
OSOTAE
North Florida/South Alabama/Southwest Georgia Weather Roundup
National Weather Service Tallahassee Florida
1000 PM EDT TUE SEP 01 2015

Note: "fair" indicates few or no clouds below 12,000 feet with no
significant weather and/or obstructions to visibility.

!FLZ017-115-028-034-025-020300
...North Florida...

CITY           SKY/WX    TMP DP  RH WIND       PRES   REMARKS
TALLAHASSEE    PTCLDY    81  74  79 E3        30.05R
APALACHICOLA   CLEAR     77  76  96 CALM      30.04R
PERRY          DRIZZLE   78  76  94 NE3       30.06R
CROSS CITY       N/A     78  76  93 CALM      30.05R
JACKSONVILLE   CLOUDY    78  77  96 NE6       30.07R
$$

!FLZ112-006-005-002-011-020300
...Florida Panhandle...

CITY           SKY/WX    TMP DP  RH WIND       PRES   REMARKS
MARIANNA       CLEAR     82  72  71 SE3       30.04R
BONIFAY        NOT AVBL
PANAMA CITY NW FAIR      80  74  81 SE5       30.03R
TYNDALL AFB    HVY RAIN  79  75  89 N3        30.04R
TYND DRONE APT CLOUDY    81  77  89 CALM      30.04R
DE FUNIAK SPR  FAIR      77  72  84 CALM      30.05R
EGLIN AFB      MOCLDY    83  72  68 CALM      30.03R
DESTIN         MOCLDY    86  74  67 VRB3      30.03R HX  94
HURLBURT       NOT AVBL
CRESTVIEW      PTCLDY    81  71  71 W3        30.05R
PENSACOLA      PTCLDY    83  71  67 W6        30.02S
$$

!ALZ063-066-020300
...South Alabama...

CITY           SKY/WX    TMP DP  RH WIND       PRES   REMARKS
DOTHAN         CLEAR     77  74  90 NE3       30.09R
OZARK CAIRNS   MOCLDY    79  68  70 NE5       30.05R
FT RUCKER HELI CLEAR     75  68  78 CALM      30.04R
RUCKER HELI 3  FAIR      77  71  82 N2        30.07R
RUCKER HELI 2  FAIR      78  72  81 CALM      30.05R
FLORALA APT    CLEAR     77  72  84 CALM      30.06R
ANDALUSIA      CLEAR     81  74  79 CALM      30.05R
TROY           CLEAR     76  72  87 CALM      30.07R
EUFALA         FAIR      77  74  90 CALM      30.06R
MOBILE         PTCLDY    78  71  79 SW3       30.05R
$$

!GAZ120>161-020300
...Southwest and South Central Georgia...

CITY           SKY/WX    TMP DP  RH WIND       PRES   REMARKS
THOMASVILLE    FAIR      77  73  88 CALM      30.08R
BAINBRIDGE     CLEAR     79  72  78 E3        30.06R
MOODY AFB      MOCLDY    77  74  91 E5        30.07R
VALDOSTA       MOCLDY    79  76  90 NE3       30.07S THUNDER
MOULTRIE       PTCLDY    79  72  78 CALM      30.08R
BLAKELY        PTCLDY    82  75  78 CALM      30.07R
ALBANY         CLEAR     80  73  79 CALM      30.09R
TIFTON         FAIR      74  72  92 CALM      30.08R
FITZGERALD     CLOUDY    78  74  86 CALM      30.10R
CORDELE        FAIR      82  75  81 CALM      30.09R
AMERICUS       FAIR      73  73 100 SE5       30.10R
HOMERVILLE     FAIR      79  77  94 E3        30.09R
$$

!GMZ750-755-770-775-020300
...Coastal and Buoy Obs...

STATION/POSITION TIME  TEMP    WIND        PRES    VSBY  WAVE
                       AIR SEA DIR/SP/G                  HT/PER
                 (UTC) (F)     (DEG/KT/KT) (MB)    (MI)  (FT/S)
KEATON BEACH     0200   77      80/ 10/ 11 1017.5R
CEDAR KEY        0200   83     160/ 12/ 14 1017.8R
C TOWER          0200   80      80/ 10/ 11 1017.2R
APALACHICOLA BUO 0150   81 85  130/  2/  4 1016.9R         2/ 6
PANAMA CITY BUOY 0150   83 86   80/  6/  8 1017.4R         2/ 5
MOBILE BUOY      0150   84 86  120/  6/  8 1017.2R         1/ 4
ORANGE BCH AL BU 0150   85 86  230/  6/  6 1016.3R         1/ 5
$$



USA.gov is the U.S. government's official web portal to all federal, state and local government web resources and services.